GFSFLT2_250_spd_159.txt.gz
Wind_Speed
79 83 87 90 92 93 96 99 101 104 103 103 102 103 104 103 102 103 104 104 104 104 103 100 95 91 88
84 89 92 97 100 102 103 105 106 110 112 111 112 113 113 112 112 112 111 111 108 108 104 97 96 91 85
93 99 102 106 109 112 114 114 115 115 119 120 118 118 119 118 117 118 115 112 109 105 102 100 89 83 82
106 108 111 114 117 119 119 120 121 122 120 121 122 121 119 116 114 114 114 110 104 99 92 86 84 82 80
112 113 115 115 116 120 121 121 121 125 127 127 123 117 112 110 108 108 105 97 93 88 83 82 83 82 80
123 122 120 122 123 122 120 117 116 120 120 112 112 109 109 109 107 102 101 98 94 89 86 84 82 79 79
129 128 125 124 122 117 116 112 109 106 107 104 108 107 110 108 106 104 101 98 95 91 87 82 81 80 76
126 123 122 117 114 112 109 110 106 106 107 98 104 102 108 108 105 100 97 94 91 89 87 85 83 81 77
120 117 115 115 117 115 112 108 101 100 100 96 96 92 95 93 96 94 93 89 84 84 84 82 81 80 77
117 118 118 116 116 114 108 102 98 91 95 89 89 91 85 86 90 91 91 87 81 79 79 79 79 78 77
115 115 113 109 106 104 100 94 90 85 84 80 77 82 79 79 83 85 85 84 76 78 77 77 78 76 77
107 104 101 98 93 89 86 83 80 74 73 72 68 70 71 69 71 76 78 78 74 75 75 75 75 77 76
97 92 88 84 81 76 73 71 69 66 62 61 58 58 59 61 63 65 66 68 69 75 77 77 77 75 74
83 79 75 73 70 65 63 61 59 59 56 54 52 50 51 52 54 57 59 61 66 70 74 77 77 76 75
71 67 64 63 63 60 56 55 53 52 51 47 45 44 44 46 49 51 54 57 61 64 68 72 74 75 78
62 58 56 54 53 51 49 47 45 43 42 41 41 39 38 39 42 44 46 48 52 54 58 62 67 71 71
54 52 50 48 46 45 42 40 38 36 34 32 31 31 31 31 33 35 38 41 45 47 51 56 58 61 62

GFSFLT2_250_spd_165.txt.gz
Wind_Speed
73 79 84 86 91 93 96 99 101 104 106 108 109 111 112 112 112 111 111 109 110 111 110 108 107 107 106
85 89 92 96 100 104 109 112 113 115 118 120 121 121 122 122 122 122 119 116 115 113 116 117 117 115 112
95 100 104 109 111 113 116 120 122 123 124 125 123 121 119 121 121 120 118 118 115 113 112 114 117 116 114
108 112 115 118 122 123 124 125 125 127 125 124 124 122 117 115 113 113 113 110 107 104 103 106 107 106 108
119 123 126 129 133 132 130 128 123 122 119 118 118 112 109 108 107 105 105 105 103 101 99 99 100 100 102
129 131 135 137 137 134 129 121 111 112 107 102 104 103 107 108 109 107 104 104 103 102 101 100 98 98 97
139 141 141 137 132 122 112 103 98 100 107 100 104 100 104 102 106 109 109 106 104 101 100 99 99 99 97
147 140 133 125 118 108 102 97 93 95 101 91 96 93 94 95 99 102 104 104 100 98 96 94 96 99 100
135 129 124 119 115 106 98 91 87 88 92 80 83 82 83 84 87 90 93 94 91 89 89 87 89 93 95
123 120 116 110 105 100 93 86 81 79 81 71 73 71 68 75 76 79 79 81 79 75 77 79 82 84 86
112 107 102 100 97 93 86 79 74 73 69 63 66 64 61 62 70 68 66 68 65 66 67 70 72 74 76
101 98 94 91 87 82 77 71 65 63 63 57 57 57 57 57 60 61 59 57 57 58 58 60 62 66 67
96 92 85 79 74 69 65 61 60 57 56 55 53 53 51 52 54 53 53 48 50 51 52 53 54 57 60
85 78 72 67 63 60 60 57 54 52 48 46 46 44 45 45 46 45 43 42 42 43 46 47 49 51 53
71 66 62 60 58 56 53 51 48 47 44 41 40 39 38 38 37 37 36 35 35 37 40 42 44 46 47
62 58 57 56 53 49 47 45 43 41 39 39 37 35 34 34 32 30 29 30 30 31 33 35 37 39 41
55 54 52 48 46 45 43 41 40 39 38 37 36 34 33 31 28 25 24 24 24 24 25 27 29 32 35

GFSFLT2_250_spd_168.txt.gz
Wind_Speed
97 98 94 92 91 93 93 95 98 102 104 106 108 111 111 112 114 115 115 115 115 114 114 113 111 110 110
103 102 102 101 98 99 103 107 110 114 116 117 120 123 124 125 126 125 122 119 118 116 114 114 116 113 114
108 109 107 107 107 110 112 115 119 124 126 127 128 129 130 130 125 121 117 115 112 111 110 111 110 111 110
115 114 113 114 118 122 124 127 128 130 131 132 129 126 123 119 116 114 112 110 107 105 103 101 101 105 106
120 120 121 126 131 133 134 135 133 132 126 119 118 116 114 111 110 109 106 105 104 104 102 99 99 99 100
125 128 133 137 138 140 135 129 118 117 113 110 109 109 110 109 107 105 105 104 103 102 101 101 100 99 98
137 139 142 143 140 134 125 114 109 110 106 97 102 98 99 97 100 101 100 99 98 96 96 96 96 98 99
146 148 144 142 130 117 112 106 101 98 94 85 89 86 87 90 92 92 93 93 90 89 87 87 90 92 93
149 145 139 126 119 110 102 92 87 88 83 74 76 71 73 77 78 78 78 79 78 76 74 73 75 79 83
137 126 119 114 108 97 89 85 80 77 71 68 66 60 61 67 67 66 64 64 65 65 62 62 66 69 72
119 113 108 100 93 88 83 77 73 70 64 59 61 59 54 60 65 59 59 58 57 58 59 59 60 62 64
110 102 94 89 86 80 74 70 65 60 59 56 56 54 52 52 54 55 51 50 49 52 55 56 56 57 59
95 90 86 82 75 70 65 61 59 55 51 49 49 49 47 47 49 47 48 44 43 46 49 51 52 54 53
86 82 76 71 66 61 59 56 53 51 48 46 45 44 43 41 41 41 41 41 39 39 41 43 44 47 48
79 72 67 61 57 56 53 51 50 48 46 43 42 41 40 38 36 35 34 35 36 35 34 35 38 40 41
68 63 59 56 53 50 48 46 44 43 42 41 39 37 36 35 34 33 31 30 29 29 30 30 31 34 37
61 56 53 51 49 47 44 42 42 41 39 37 36 36 36 35 33 31 28 25 24 24 24 26 27 29 32

GFSFLT2_250_spd_171.txt.gz
Wind_Speed
96 98 100 104 107 111 112 113 109 108 109 110 110 111 112 112 112 114 115 115 114 113 113 114 113 111 110
104 105 109 112 115 117 119 118 117 116 117 119 121 123 123 123 123 124 124 124 123 121 118 119 118 119 118
111 114 117 120 122 124 123 121 120 124 127 129 130 131 131 132 132 129 124 119 116 114 111 110 107 110 110
121 124 127 129 130 130 123 126 127 132 133 134 135 132 129 124 119 117 115 112 108 107 105 104 103 103 103
128 130 133 137 135 129 130 131 134 135 129 121 115 115 115 113 111 108 105 105 105 104 103 103 102 102 101
136 139 139 131 132 132 133 135 128 123 112 111 111 108 108 107 107 102 97 94 93 92 91 93 93 95 98
142 141 135 136 135 135 130 119 112 109 102 102 98 94 93 94 93 93 91 88 87 86 85 86 87 88 89
142 144 142 141 134 122 113 108 107 101 90 85 83 82 81 81 80 80 78 76 74 73 74 74 75 78 81
147 147 143 130 119 111 107 103 94 87 78 73 70 70 71 71 68 66 65 65 64 63 63 65 66 66 71
148 140 129 120 113 106 95 86 79 77 68 67 63 59 66 65 62 59 59 59 59 58 59 60 60 60 63
133 122 115 112 104 92 82 77 72 68 64 62 62 58 54 60 55 50 50 51 52 52 53 55 56 56 59
119 111 104 96 89 83 77 69 63 61 61 57 56 54 52 52 52 49 46 46 47 46 47 49 52 51 53
107 98 89 82 79 74 67 64 59 57 54 52 50 49 48 48 47 46 44 41 43 43 42 43 46 48 48
96 87 80 75 69 64 61 58 55 51 49 48 47 46 44 44 43 42 41 38 37 37 37 38 40 41 44
86 79 73 66 61 58 55 54 51 48 47 46 44 42 41 41 39 37 35 34 33 32 32 33 34 35 37
78 72 65 60 56 53 51 48 46 47 45 43 41 39 39 38 37 36 34 31 29 28 27 27 27 28 29
69 63 58 55 52 50 47 46 46 45 44 42 40 38 37 35 33 33 32 29 27 26 24 22 21 22 23

GFSFLT2_250_spd_174.txt.gz
Wind_Speed
101 104 105 107 109 112 116 118 120 120 122 124 122 117 114 115 114 114 114 114 115 113 112 112 111 110 108
108 111 113 115 116 118 121 123 125 128 130 125 122 122 124 125 125 122 121 119 118 118 117 117 116 117 118
114 118 120 121 123 126 127 128 131 129 126 129 132 130 119 110 105 105 104 101 101 102 102 105 110 110 111
121 122 125 128 131 131 133 134 126 130 130 126 119 113 110 106 103 99 97 96 96 98 98 100 100 101 103
124 128 130 132 135 136 131 129 133 131 118 114 106 106 105 103 101 98 94 91 90 91 93 94 96 98 100
130 132 135 139 138 131 131 132 129 124 109 110 103 103 101 96 91 86 83 82 81 81 82 83 84 87 89
135 139 140 137 129 133 133 126 119 112 104 105 99 93 87 84 80 77 74 72 72 73 74 75 77 78 81
140 141 138 135 137 134 122 117 113 108 99 91 86 81 79 76 71 66 62 62 62 63 64 66 68 70 71
137 140 141 143 137 124 116 109 108 98 86 80 76 72 68 64 62 58 58 58 58 59 60 60 61 63 64
141 141 144 136 128 117 111 104 93 88 80 73 64 62 64 58 55 52 52 52 54 54 54 54 54 55 58
143 139 132 125 117 112 101 89 83 79 68 65 61 57 56 59 53 49 47 46 46 47 49 51 51 52 52
136 126 119 113 108 99 88 81 73 68 63 58 56 55 53 51 53 50 46 46 44 43 44 45 47 48 48
124 114 109 103 93 85 78 71 64 62 58 56 53 51 51 50 48 47 44 43 43 43 42 41 42 45 45
111 107 100 90 82 76 68 61 57 54 55 52 50 49 48 47 45 45 44 41 38 39 39 39 39 39 41
103 97 86 79 72 64 58 55 53 51 50 49 49 47 44 44 44 43 41 41 40 37 35 34 34 34 35
93 83 77 71 62 57 53 51 50 46 45 46 46 46 46 47 42 41 41 39 37 36 33 30 29 30 31
80 75 69 61 56 52 50 49 46 45 44 43 43 44 44 43 44 41 37 36 34 33 32 29 26 25 25

GFSFLT2_250_spd_177.txt.gz
Wind_Speed
98 100 102 104 106 109 113 116 120 122 124 124 127 127 125 118 114 113 112 112 111 109 109 109 109 109 111
102 105 108 110 113 116 119 122 124 126 128 131 132 129 124 125 122 118 109 101 99 97 97 98 99 101 104
108 111 114 117 120 123 127 129 130 134 133 127 123 126 127 119 106 102 99 96 94 92 92 94 95 98 101
113 117 120 124 127 129 130 134 136 134 125 127 129 120 110 104 98 94 92 91 90 89 87 88 89 92 96
120 123 126 128 130 132 134 136 133 131 129 130 118 108 105 99 93 87 82 80 81 80 78 79 82 86 91
125 127 130 131 133 136 138 131 135 136 118 113 106 103 99 94 85 79 74 73 72 73 73 72 73 75 78
128 130 131 135 137 135 132 137 134 119 111 112 103 98 91 85 80 74 68 65 64 65 65 64 65 68 71
128 130 135 137 136 137 138 133 123 115 105 103 97 89 83 77 70 65 61 58 58 58 58 57 57 60 63
127 131 135 137 139 140 130 122 118 109 102 93 85 82 74 67 61 58 55 54 52 52 52 51 51 53 56
127 134 138 139 140 130 123 115 108 104 94 86 78 71 66 60 56 52 50 47 47 47 48 49 50 51 50
133 136 140 139 130 123 112 105 102 94 84 78 69 63 59 58 52 49 49 47 45 44 44 45 46 49 50
136 140 133 128 121 108 101 98 90 84 77 68 64 58 55 50 51 47 47 46 46 44 43 42 42 43 46
137 132 123 115 104 100 95 88 81 73 67 64 59 55 51 50 48 47 45 44 44 43 42 42 40 39 40
128 119 109 100 96 94 85 78 70 63 60 57 54 52 49 47 47 45 44 45 42 40 40 39 38 37 36
114 106 99 94 91 82 75 66 61 58 54 52 51 50 49 49 44 43 44 41 42 40 36 34 32 32 33
103 96 92 89 80 72 64 59 55 52 51 48 47 45 44 43 49 48 42 41 36 35 34 30 28 27 28
95 90 86 77 71 63 57 54 50 49 47 47 45 44 44 42 40 45 44 37 35 33 32 30 27 24 24

GFSFLT2_250_spd_183.txt.gz
Wind_Speed
85 84 88 93 96 100 103 106 109 113 119 123 123 124 125 124 120 119 117 117 116 119 120 117 113 108 104
87 89 96 98 100 102 106 110 114 120 124 124 125 126 124 122 120 120 119 123 124 119 114 108 104 102 99
94 99 100 102 104 108 112 116 122 123 124 125 123 123 124 118 120 122 126 127 120 111 104 97 94 91 91
99 104 104 106 109 112 117 120 123 123 124 125 125 127 119 122 123 125 121 111 106 99 93 89 85 82 79
104 104 106 109 113 115 116 117 122 122 124 128 126 125 126 128 129 119 108 100 93 89 85 79 75 72 70
103 105 109 109 110 111 113 117 121 125 122 128 126 130 132 127 116 108 99 92 87 81 75 71 65 61 59
103 105 105 108 110 113 118 123 126 122 119 130 130 131 123 112 106 97 92 87 80 72 65 61 59 57 55
101 104 108 112 117 121 122 122 124 128 126 132 128 123 112 103 97 90 85 78 72 64 60 57 54 53 51
105 110 115 120 123 124 122 122 128 133 132 134 121 113 102 93 90 85 76 71 65 61 57 55 52 50 47
113 116 120 123 125 124 125 130 132 136 135 123 109 99 98 85 81 76 68 63 60 57 54 51 49 49 47
115 117 121 125 127 130 133 134 135 133 117 111 99 91 87 83 71 68 63 58 55 52 50 50 49 46 47
112 118 124 128 132 135 137 138 127 114 106 98 90 85 80 72 67 60 56 53 53 51 48 46 47 44 43
116 123 128 133 135 136 136 124 113 101 93 89 85 76 69 65 60 55 53 47 48 51 49 45 46 43 39
121 127 131 133 135 133 120 112 101 93 84 83 75 68 63 57 55 54 48 47 46 45 44 41 40 39 36
125 129 133 135 131 116 107 99 91 87 81 72 66 60 54 53 51 50 50 45 45 44 42 36 35 35 33
129 132 133 123 112 104 96 88 86 80 72 67 60 51 46 43 48 50 46 48 44 42 38 37 31 29 29
131 128 114 109 101 94 87 83 78 71 64 60 55 50 45 39 38 45 46 43 41 36 32 32 32 27 25

GFSFLT2_250_spd_186.txt.gz
Wind_Speed
81 85 87 91 92 97 98 97 103 109 108 109 107 109 111 112 113 113 114 114 109 103 104 103 102 107 109
86 89 89 95 101 100 100 100 104 105 108 106 109 111 113 114 116 118 115 109 110 105 104 104 105 104 100
88 95 96 92 93 94 98 103 104 109 109 111 112 116 119 118 118 113 116 111 110 107 105 104 99 93 89
97 93 95 99 98 99 103 108 110 110 114 117 120 124 122 117 115 116 113 111 108 105 100 95 90 85 83
98 101 102 108 104 104 107 109 112 114 117 125 126 128 119 119 120 120 115 110 103 98 93 88 85 80 77
102 106 110 107 107 108 109 110 116 119 122 129 127 123 122 123 126 124 112 103 97 90 86 81 78 71 67
104 106 107 110 110 110 112 118 121 124 124 125 123 127 127 125 126 115 107 98 90 84 80 75 68 64 58
107 106 109 110 111 112 116 119 125 128 120 123 126 128 125 120 115 106 96 90 84 81 73 67 62 56 54
108 108 110 112 114 117 121 123 124 122 124 130 130 130 125 108 103 97 89 84 78 71 67 60 57 54 50
113 112 118 118 118 120 123 122 121 124 126 132 133 123 115 105 90 86 86 77 69 65 60 55 53 53 47
115 120 118 118 119 123 122 123 124 127 128 129 124 112 102 95 86 80 74 68 63 58 54 52 50 49 49
113 111 111 115 121 123 126 128 131 129 129 120 112 101 92 86 80 73 67 60 57 54 52 48 47 49 46
102 105 111 119 122 126 129 133 134 128 115 108 98 91 83 78 73 65 61 52 51 50 48 45 46 46 44
103 109 117 122 126 129 132 133 129 117 109 94 88 83 76 69 65 60 53 52 47 46 45 40 41 45 42
109 116 120 125 129 132 130 124 114 107 98 87 81 74 67 64 59 53 50 47 46 47 44 37 37 40 36
115 120 124 128 130 129 117 110 103 95 87 82 75 66 57 53 53 53 48 46 43 43 43 41 35 36 31
119 124 126 127 121 109 107 99 92 86 79 73 67 60 52 44 41 48 49 43 42 40 38 38 35 32 29

GFSFLT2_250_spd_192.txt.gz
Wind_Speed
62 65 78 79 79 84 81 85 88 92 97 100 104 105 109 113 113 120 125 123 124 123 125 116 110 104 107
73 79 80 79 84 81 82 89 94 98 101 102 106 113 115 114 122 128 132 128 129 128 122 114 108 111 114
73 75 80 83 81 85 91 96 102 103 104 110 118 118 116 125 128 134 132 132 132 126 116 114 115 118 116
79 80 79 83 86 93 100 105 106 107 110 118 119 123 125 133 133 133 134 134 130 123 118 119 120 118 113
79 81 83 90 94 95 99 103 108 111 116 119 125 131 136 137 138 138 137 131 124 123 122 122 119 112 102
82 84 84 92 96 100 102 107 109 110 119 124 129 138 142 138 143 138 130 122 123 126 125 120 110 102 96
82 85 89 95 99 102 107 108 113 117 119 128 137 141 141 144 141 130 121 122 125 127 122 111 102 97 88
86 90 95 99 104 105 106 112 122 131 131 134 138 138 140 142 132 128 123 124 124 125 114 103 98 90 82
93 96 102 104 102 108 114 112 121 134 137 134 137 138 137 130 133 131 129 123 114 114 110 98 88 82 73
96 103 107 108 106 106 113 129 131 129 134 135 135 124 121 128 136 137 131 118 104 105 100 91 79 73 66
101 104 109 112 118 124 128 127 129 131 136 130 119 120 123 128 132 128 116 111 103 97 89 82 71 63 60
105 106 114 119 121 123 125 127 132 131 121 119 119 122 126 127 122 116 110 103 93 87 78 70 62 57 53
107 111 117 123 123 125 129 128 123 121 122 120 121 122 124 117 111 109 101 97 83 74 68 61 54 49 47
114 118 120 123 126 121 110 110 116 121 126 124 122 122 116 110 106 98 91 84 75 64 59 51 46 44 43
113 118 122 115 103 103 108 114 118 120 124 125 120 114 111 103 96 88 81 74 64 56 50 44 39 40 39
116 111 99 97 102 108 114 117 118 121 120 114 109 107 103 95 82 75 69 66 56 47 42 39 33 37 36
91 90 95 101 106 113 114 117 118 112 110 104 101 95 91 83 77 61 60 54 50 41 36 35 34 31 33

GFSFLT2_250_spd_195.txt.gz
Wind_Speed
66 71 66 68 69 66 73 78 81 83 85 89 95 95 98 100 104 110 113 115 119 119 124 125 132 130 129
67 70 69 65 71 77 80 80 83 90 91 92 96 100 102 106 110 113 115 119 124 127 130 136 134 133 132
70 74 73 74 78 84 82 88 89 88 93 97 101 103 107 110 115 116 120 125 130 133 135 132 136 128 115
71 80 86 89 85 84 87 86 86 95 98 103 107 108 115 116 117 121 126 129 138 137 135 139 138 119 118
78 84 89 88 84 80 87 90 94 98 104 107 110 115 115 119 123 128 135 139 138 137 140 138 122 121 123
90 90 91 92 87 86 91 96 97 98 106 112 114 119 126 127 131 134 138 136 140 142 139 126 126 128 125
88 84 85 89 86 89 92 98 104 104 103 109 116 123 130 130 134 138 142 141 142 133 124 127 131 126 111
81 83 82 89 93 96 99 102 107 110 112 116 119 123 126 133 142 146 143 142 125 124 128 131 125 115 102
77 80 85 91 95 99 101 104 109 116 114 118 120 122 134 144 149 147 138 123 127 131 130 121 111 109 98
84 90 91 91 97 101 107 108 113 120 121 119 126 133 137 144 145 136 129 130 133 131 122 110 104 103 93
87 90 94 98 102 107 112 115 120 122 126 131 136 141 139 138 123 128 130 132 131 121 110 102 96 91 83
89 93 100 101 109 114 120 125 128 135 135 137 136 137 124 117 121 128 131 127 115 110 104 93 85 78 72
94 100 105 113 120 122 127 128 133 136 138 133 128 112 118 120 124 127 119 115 106 99 90 79 72 68 63
105 111 115 121 123 126 129 134 137 140 135 118 113 117 121 126 122 113 105 100 97 86 77 69 61 61 56
107 111 115 120 128 133 133 126 126 112 111 116 120 122 125 118 108 100 99 90 80 73 67 60 52 54 50
105 110 114 116 117 121 115 105 104 109 114 117 119 119 115 115 95 90 87 77 71 65 60 56 47 49 46
106 112 109 109 98 94 99 103 108 114 118 117 113 104 100 99 98 78 72 67 66 60 55 49 44 41 42

GFSFLT2_250_spd_198.txt.gz
Wind_Speed
85 82 79 81 78 75 72 78 75 79 80 86 86 85 88 90 95 96 98 101 102 104 110 110 114 119 123
90 87 85 81 79 68 74 76 76 81 87 87 88 89 92 96 99 101 103 101 109 109 114 116 122 123 128
93 92 90 87 84 85 79 80 84 90 93 93 95 100 103 104 105 100 105 110 112 118 117 121 123 130 135
95 93 87 81 88 92 92 86 88 90 95 100 103 106 105 105 105 112 110 115 117 120 123 128 132 136 139
87 86 71 77 81 86 89 96 92 96 98 101 103 100 108 111 109 113 116 120 125 128 128 133 134 134 143
84 83 85 82 85 88 95 95 99 103 104 105 107 108 112 115 113 122 125 129 129 130 131 138 141 146 152
86 85 83 83 85 86 87 93 92 100 103 111 109 110 113 118 122 126 131 129 131 135 137 142 150 155 148
86 84 81 81 80 82 89 98 98 100 100 102 106 110 121 123 128 128 131 132 136 142 147 149 153 142 128
80 81 76 77 81 84 85 88 94 100 101 106 108 112 118 124 132 134 135 139 144 148 152 155 131 129 128
74 71 73 74 76 80 87 94 97 102 105 108 114 116 117 124 132 135 139 147 149 151 140 124 130 127 124
67 69 72 76 81 87 93 96 100 101 106 110 114 118 123 127 135 140 146 146 143 131 126 127 124 117 110
70 72 75 79 83 88 93 98 103 105 112 114 117 123 125 132 139 141 141 133 121 122 124 122 115 104 96
72 76 81 85 89 95 100 104 111 114 118 122 126 129 134 135 139 129 116 121 124 121 117 111 98 93 85
74 76 80 89 93 97 104 110 117 122 124 126 129 130 132 131 117 114 116 121 120 111 101 96 88 78 74
77 83 89 95 102 105 110 114 118 124 124 126 127 116 109 115 115 115 117 110 103 96 94 85 72 68 66
86 91 96 100 103 107 111 114 119 123 121 109 106 109 114 120 122 108 101 94 93 87 78 71 65 57 57
87 90 94 103 108 112 110 114 108 100 103 106 106 110 113 116 113 100 86 88 85 74 65 62 59 52 49

GFSFLT2_250_spd_201.txt.gz
Wind_Speed
93 92 93 93 91 89 87 84 84 85 83 82 84 86 86 89 89 92 95 92 95 95 98 101 103 109 110
94 92 92 92 91 90 91 88 87 87 90 90 86 94 96 95 93 96 98 96 101 101 105 107 111 113 116
93 91 92 94 89 90 92 93 92 93 96 96 96 100 101 107 107 106 104 105 104 108 109 112 112 120 122
96 95 94 94 96 91 94 96 98 101 101 101 101 104 104 104 106 105 104 105 110 115 114 118 123 125 128
101 97 97 99 100 97 99 102 103 104 103 104 101 92 96 97 105 107 109 113 118 119 120 120 126 129 129
101 102 102 101 102 100 99 105 103 108 107 103 92 96 98 99 105 109 110 111 114 117 123 125 125 127 129
102 102 101 102 105 106 106 105 107 105 103 102 95 97 100 103 104 106 108 111 115 117 119 122 125 128 129
90 95 100 103 106 107 107 107 108 109 104 100 96 99 103 104 105 108 109 110 113 118 118 122 126 131 136
81 84 89 92 94 95 97 99 99 95 94 95 96 96 102 106 108 109 109 111 116 120 123 129 132 136 140
71 72 75 77 80 82 84 86 88 88 87 92 95 98 102 105 107 110 114 116 120 126 131 135 139 139 128
66 63 65 69 72 75 76 78 82 85 87 88 98 99 102 101 109 115 116 121 128 131 135 139 129 123 120
67 62 62 63 67 70 73 77 82 86 91 94 98 101 104 110 114 120 124 127 129 133 135 125 118 121 119
58 59 61 64 68 73 79 84 86 88 93 96 98 105 111 114 118 124 124 131 131 126 116 121 118 116 108
56 61 64 67 73 77 80 85 88 92 95 100 106 110 114 119 122 124 124 117 108 113 115 120 113 98 92
55 60 64 69 74 79 83 87 91 97 103 107 109 112 116 119 119 108 105 107 110 111 109 103 93 85 83
58 64 69 74 79 84 88 94 98 103 108 111 112 113 109 103 105 106 107 110 107 99 91 84 85 79 70
67 73 78 83 88 92 94 98 103 107 109 105 96 95 98 104 111 115 105 100 93 88 81 80 76 69 62

GFSFLT2_250_spd_204.txt.gz
Wind_Speed
107 105 103 102 100 99 99 97 96 93 91 91 92 95 94 93 94 94 94 96 97 98 100 101 103 104 103
109 107 106 106 104 103 101 97 93 95 95 96 97 98 97 97 97 98 99 100 102 103 103 107 107 108 102
107 106 107 106 105 103 101 99 96 97 99 98 99 97 98 99 99 99 102 104 105 107 107 109 106 101 101
107 106 106 105 104 102 101 99 99 100 99 99 100 99 101 102 102 102 105 108 109 109 110 110 107 104 105
114 112 110 108 106 104 104 104 104 103 101 101 103 104 107 108 107 107 110 110 112 113 113 108 111 108 110
111 112 113 114 114 113 112 110 109 108 107 106 109 111 112 112 112 111 111 115 115 114 112 117 110 110 113
98 101 105 107 110 111 111 110 110 111 112 112 115 115 115 115 116 114 114 115 116 117 112 108 109 112 114
91 93 95 97 100 103 105 107 108 110 112 115 115 117 118 117 116 115 116 114 111 104 104 107 109 109 110
83 85 86 89 92 94 94 96 97 98 101 103 105 108 110 110 112 110 106 102 101 102 104 107 105 106 109
76 74 76 78 80 81 81 83 84 85 87 91 94 96 101 101 99 97 96 98 99 101 104 104 106 108 111
70 75 79 78 75 73 72 72 72 73 75 80 83 83 85 89 95 94 94 97 100 102 106 110 113 113 113
49 54 60 66 72 77 76 71 71 71 72 74 78 81 83 85 88 96 98 100 100 107 112 117 117 116 116
33 38 44 49 55 62 68 75 78 79 77 77 78 82 86 91 95 100 101 107 108 110 115 119 120 116 110
25 29 34 39 45 51 58 65 72 76 78 80 84 87 91 95 99 103 105 105 110 113 114 111 108 107 109
33 35 38 42 46 51 57 64 71 77 82 84 86 91 95 99 103 106 107 108 107 100 100 104 109 107 103
41 44 46 49 53 58 63 69 75 81 86 90 92 94 98 104 104 103 99 98 100 102 104 104 108 101 92
54 56 59 61 65 70 74 78 83 87 92 94 95 93 92 92 99 103 100 102 101 104 102 95 90 88 81

GFSFLT2_250_spd_207.txt.gz
Wind_Speed
110 110 109 108 109 109 109 108 107 107 107 107 106 105 103 104 104 105 105 106 100 100 101 100 100 100 100
112 113 114 114 114 115 114 112 111 109 107 107 106 107 107 108 108 108 108 105 105 106 105 102 102 103 100
114 115 116 117 117 117 116 114 113 112 111 111 111 112 112 113 113 111 109 107 110 109 108 107 106 106 106
117 117 117 117 117 117 117 116 115 115 115 116 116 115 114 113 112 111 110 110 112 112 112 112 111 112 112
117 116 116 116 116 116 115 114 114 115 115 116 116 115 114 114 114 114 113 113 115 116 117 117 118 118 119
117 120 121 121 120 119 118 118 118 118 120 121 121 120 120 119 120 119 120 121 121 122 122 121 122 121 121
103 107 112 115 117 119 122 123 125 127 128 126 125 126 127 126 125 124 125 124 122 121 121 121 121 120 119
92 94 96 99 100 104 107 108 111 113 112 113 114 116 116 116 117 116 115 115 115 115 115 115 114 112 111
80 82 85 87 90 93 94 95 98 99 99 102 102 102 102 102 103 104 104 104 105 106 106 105 105 104 103
74 75 76 76 77 79 81 83 85 87 89 90 90 89 91 92 92 91 91 90 92 92 92 94 93 91 94
67 69 72 74 76 78 80 83 84 85 84 84 83 81 82 84 88 86 83 82 83 84 87 89 91 91 92
46 49 51 53 55 58 61 64 67 71 76 80 85 87 87 87 88 89 87 88 90 90 93 93 95 97 98
30 32 34 36 39 43 46 50 53 56 59 61 64 69 73 79 85 93 92 97 92 90 97 100 104 104 101
25 27 30 32 34 37 40 43 47 49 51 53 56 61 66 71 74 79 83 86 93 98 101 106 106 104 99
36 39 41 43 45 48 51 54 56 59 61 61 62 65 69 75 81 86 91 94 96 96 96 95 101 102 103
46 48 51 54 57 60 62 64 67 69 71 73 74 75 78 83 81 82 84 85 89 93 94 93 100 107 104
56 58 60 62 64 64 63 65 68 69 70 69 69 70 73 79 87 92 88 94 93 96 98 97 94 99 98